Location: Mansfield Dam
(30.3944°N, 97.9097°W)
Time: 12:51:27
(UTC-05:00)

Daily predictions for brighter satellites

Satellite Brightness Start Highest point End
(mag) Time Altitude Azimuth Time Altitude Azimuth Time Altitude Azimuth
Milstar 3 3.3 20:15:35 10° W 20:26:13 77° S 20:33:03 10° E
DELTA 2 R/B (1) 3.8 20:22:00 10° WNW 20:27:36 70° SSW 20:33:10 10° SE
Helios 1B rocket 4.0 20:27:38 10° NE 20:30:17 16° E 20:32:54 10° SE
ATLAS 5 CENTAUR R/B 4.3 20:27:13 10° NNE 20:30:27 14° NE 20:33:47 10° E
SEDSat Delta rocket 3.4 20:26:26 10° W 20:31:10 82° N 20:36:39 10° E
SJ-6B 2.8 20:28:08 10° SSE 20:32:03 79° ENE 20:36:05 10° N
ERBS 2.6 20:33:09 10° NNW 20:36:33 53° NE 20:39:56 10° SE
SL-16 R/B 2.2 20:31:18 10° SSW 20:36:58 87° ESE 20:42:39 10° NNE
FREGAT/IRIS 3.3 20:35:41 10° S 20:38:39 57° W 20:41:38 10° NNW
Cosmos 1400 Rocket 3.6 20:35:01 10° NNW 20:38:52 55° W 20:42:45 10° S
Sakura Rocket 3.0 20:39:05 10° WSW 20:42:32 45° SSE 20:46:21 10° E
CZ-2D R/B 4.0 20:40:41 10° SE 20:44:13 35° ENE 20:47:46 10° N
Resurs 01 Rocket 1.8 20:43:21 10° SSE 20:47:40 53° ENE 20:52:00 10° N
GRACE-1 3.7 20:47:59 10° N 20:50:43 82° E 20:53:25 10° S
GRACE-2 3.7 20:48:21 10° N 20:51:04 81° E 20:53:47 10° S
HJ-1C 3.6 20:48:49 10° S 20:52:14 74° WSW 20:55:41 10° NNW
Cosmos 1315 Rocket 3.2 20:53:35 10° NNW 20:57:36 67° W 21:01:31 10° S
USA 229 DEB 3.8 20:53:25 10° S 20:59:54 50° ESE 21:06:29 10° NE
USA 229 3.8 20:53:32 10° S 21:00:01 49° ESE 21:06:35 10° NE
ALOS 3.2 20:56:04 10° S 21:00:35 51° W 21:05:08 10° NNW
Cosmos 1933 3.7 20:59:05 10° SSE 21:02:54 43° E 21:06:44 10° NNE
OAO 3 Rocket 3.8 20:58:45 10° WNW 21:03:31 53° N 21:07:39 14° E
Cosmos 1992 Rocket 4.3 21:03:48 10° SSW 21:09:00 73° WNW 21:14:15 10° NNE
Meteor 2-10 Rocket 4.2 21:05:58 10° SSE 21:11:21 41° E 21:16:44 10° NNE
DASH 3.5 21:07:13 10° W 21:13:49 38° SSW 21:15:30 21° SSE
Cosmos 2219 Rocket 4.2 21:20:01 11° ENE 21:20:01 11° ENE 21:20:17 10° ENE
Helios 1A 3.3 21:15:37 22° SE 21:18:03 46° ENE 21:22:08 10° N
ATLAS CENTAUR R/B 3.9 21:15:02 10° WNW 21:18:23 33° SW 21:26:15 10° SSE
Cosmos 1733 Rocket 3.1 21:14:58 10° N 21:19:20 57° E 21:22:17 20° SSE
Cosmos 2026 Rocket 3.9 21:14:57 10° N 21:21:09 83° E 21:27:13 10° S
Cosmos 1862 3.3 21:19:12 10° N 21:23:12 60° E 21:25:26 24° SSE
Cosmos 1862 Rocket 3.6 21:19:04 10° S 21:23:31 88° W 21:28:00 10° N
Meteor 2-20 Rocket 4.5 21:19:10 10° N 21:25:18 85° W 21:31:27 10° S
Meteor 1-26 Rocket 4.4 21:25:15 10° SSE 21:30:42 52° E 21:36:18 10° NNE
Spot 1 4.4 21:31:53 22° SSE 21:35:19 76° ENE 21:40:23 10° N
USA 186 2.4 21:34:22 27° SSW 21:35:29 45° W 21:38:15 10° NNW
SAR-Lupe-4 3.4 21:37:25 46° SSE 21:38:24 81° ENE 21:42:00 10° N
Cosmos 1939 Rocket 2.9 21:39:18 46° ESE 21:40:06 56° ENE 21:44:02 10° N
OAO 1 Rocket 4.4 21:36:49 10° SW 21:42:04 64° SSE 21:44:15 34° E
Cosmos 2263 Rocket 2.1 21:38:40 10° NNW 21:44:15 84° ENE 21:46:55 32° SSE
Cosmos 1703 Rocket 3.6 21:43:25 46° SE 21:44:15 53° E 21:48:34 10° NNE
Cosmos 968 Rocket 3.8 21:43:09 10° N 21:48:10 47° ENE 21:49:07 42° ESE
Cosmos 2237 4.1 21:45:01 10° SSW 21:50:44 83° ESE 21:56:29 10° NNE
H-II Stage 2 4.2 21:47:49 10° WSW 21:50:54 23° S 21:51:50 22° S
CZ-4B DEB 3.3 21:54:55 54° NW 21:54:55 54° NW 21:57:27 10° NNW
Cosmos 1825 4.2 21:52:01 10° NNW 21:55:15 27° W 21:58:22 11° SSW
SJ-11-01 4.2 21:53:56 43° S 21:55:27 88° WSW 22:00:08 10° NNW
SAR-Lupe-1 4.2 21:55:22 61° SW 21:55:44 67° WSW 21:59:18 10° NNW
Cosmos 2360 Rocket 3.2 21:52:27 10° SW 21:57:51 47° WNW 22:03:18 10° N
Atlas Centaur 2 2.7 21:51:36 10° W 21:58:13 89° N 22:02:01 34° E
Envisat 3.2 21:57:21 30° S 21:59:50 69° WSW 22:04:54 10° NNW
COSMOS 2428 2.5 21:54:31 10° SSW 22:00:09 74° ESE 22:05:51 10° NNE
USA 234 4.1 21:59:28 29° E 22:01:50 37° NE 22:07:44 10° NNW
Lacrosse 4 Rocket 3.5 22:01:59 10° NW 22:05:30 24° WSW 22:07:49 16° SSW
H-2A R/B 4.0 22:09:09 14° NE 22:09:09 14° NE 22:10:38 10° NNE
Cosmos 2221 Rocket 3.6 22:09:27 68° NE 22:09:27 68° NE 22:13:24 10° N
Cosmos 2266 Rocket 3.9 22:03:57 10° N 22:10:16 69° E 22:11:43 53° SE
Cosmos 1867 3.4 22:05:42 10° NNW 22:11:08 69° ENE 22:11:34 66° E
ATLAS 5 CENTAUR R/B 2.4 22:09:35 10° NNW 22:15:50 87° ENE 22:17:15 58° SSE
SEDSat Delta rocket 3.4 22:12:24 10° W 22:17:38 90° NNW 22:18:07 76° E
ARGOS 4.0 22:18:59 35° NE 22:18:59 35° NE 22:23:04 10° N
ERS-1 Rocket 2.8 22:22:01 86° NE 22:22:01 86° NE 22:26:59 10° NNW
Meteor 1-14 Rocket 4.1 22:16:59 10° N 22:22:44 86° E 22:23:20 73° SSE
Meteor 1-25 Rocket 4.3 22:18:03 10° N 22:23:01 57° NE 22:23:01 57° NE
SeaSat 1 4.2 22:24:45 20° NE 22:24:45 20° NE 22:27:19 10° N
YAOGAN 6 4.5 22:32:38 30° NW 22:32:38 30° NW 22:34:45 10° NNW
Meteor 1-20 Rocket 4.4 22:27:29 10° N 22:32:19 59° NE 22:32:19 59° NE
Cosmos 2237 Rocket 4.1 22:40:20 18° NE 22:40:20 18° NE 22:41:45 10° NE
SPOT 5 3.9 22:39:13 37° NNE 22:39:13 37° NNE 22:42:07 10° N
Cosmos 2333 Rocket 3.2 22:41:58 36° NNE 22:41:58 36° NNE 22:45:19 10° NNE
NOSS 3-1 (C) 3.6 22:41:21 28° SW 22:44:22 65° WNW 22:50:30 10° NNE
MetOp-A 4.4 22:45:46 65° NNW 22:45:46 65° NNW 22:50:22 10° NNW
Cosmos 1844 Rocket 3.4 22:40:20 10° N 22:44:25 43° NNE 22:44:25 43° NNE
Cosmos 2278 Rocket 4.1 22:42:56 10° NNE 22:45:29 19° NE 22:45:29 19° NE
OAO 3 Rocket 4.4 22:42:19 10° WNW 22:45:28 40° W 22:45:28 40° W
Gbstr 26 Del rocket 4.3 22:43:02 10° SW 22:50:29 88° SE 22:58:41 10° NE
CZ-4C R/B 4.1 22:50:48 10° N 22:57:02 29° NE 22:57:02 29° NE
Cosmos 2219 Rocket 2.8 23:01:36 51° NW 23:01:36 51° NW 23:06:21 10° N
NOSS 3-1 (A) 4.0 23:02:34 49° N 23:02:34 49° N 23:07:14 10° NNE
Milstar 3 3.8 23:02:49 10° W 23:07:27 32° SW 23:07:27 32° SW
Terra 4.2 23:23:54 17° N 23:23:54 17° N 23:25:03 10° N
H-2A R/B 3.7 23:02:11 10° W 23:43:18 69° WSW 23:43:18 69° WSW
USA 234 4.3 23:46:49 37° WNW 23:46:49 37° WNW 23:50:57 10° NW
H-2A R/B 4.3 23:49:47 20° NW 23:49:47 20° NW 23:51:23 10° NNW
Atlas Centaur 2 3.9 23:40:37 10° W 23:44:38 37° W 23:44:38 37° W
